This is the latest recevied weather packets stored in our database for station/object AD0YN. If no packets are shown the sender has not sent any weather packets the latest 10 day(s).
| Time | Temp. | Humidity | Pressure | Rain* | Wind** | Luminosity | Snow |
|---|---|---|---|---|---|---|---|
| 1777928450 | 27.78° C | 36% | 1000.8 hPa | 0 mm | - | 708 W/m² | - |
| 1777928149 | 27.78° C | 37% | 1000.8 hPa | 0 mm | - | 603 W/m² | - |
| 1777927846 | 27.22° C | 37% | 1000.7 hPa | 0 mm | - | 771 W/m² | - |
| 1777927544 | 27.22° C | 39% | 1000.8 hPa | 0 mm | - | 709 W/m² | - |
| 1777927243 | 27.22° C | 38% | 1000.9 hPa | 0 mm | - | 533 W/m² | - |
| 1777926941 | 27.22° C | 40% | 1000.9 hPa | 0 mm | - | 515 W/m² | - |
| 1777926638 | 27.22° C | 39% | 1001 hPa | 0 mm | - | 729 W/m² | - |
| 1777926333 | 27.78° C | 41% | 1001.2 hPa | 0 mm | - | 654 W/m² | - |
| 1777926030 | 27.22° C | 37% | 1000.9 hPa | 0 mm | - | 834 W/m² | - |
| 1777925727 | 27.22° C | 38% | 1001 hPa | 0 mm | - | 798 W/m² | - |
| 1777925425 | 27.22° C | 40% | 1001 hPa | 0 mm | - | 807 W/m² | - |
| 1777925121 | 27.22° C | 37% | 1001.2 hPa | 0 mm | - | 824 W/m² | - |
| 1777924818 | 26.67° C | 43% | 1001.2 hPa | 0 mm | - | 846 W/m² | - |
| 1777924514 | 27.22° C | 38% | 1001.2 hPa | 0 mm | - | 845 W/m² | - |
| 1777924211 | 26.67° C | 40% | 1001.1 hPa | 0 mm | - | 851 W/m² | - |
| 1777923907 | 27.22° C | 39% | 1001.2 hPa | 0 mm | - | 860 W/m² | - |
| 1777923603 | 26.67° C | 40% | 1001.1 hPa | 0 mm | - | 869 W/m² | - |
| 1777923300 | 26.67° C | 38% | 1001.5 hPa | 0 mm | - | 875 W/m² | - |
| 1777922999 | 26.67° C | 40% | 1001.5 hPa | 0 mm | - | 884 W/m² | - |
| 1777922696 | 26.11° C | 41% | 1001.4 hPa | 0 mm | - | 890 W/m² | - |
| 1777922395 | 26.11° C | 39% | 1001.4 hPa | 0 mm | - | 894 W/m² | - |
| 1777922092 | 26.67° C | 38% | 1001.5 hPa | 0 mm | - | 904 W/m² | - |
| 1777921787 | 26.11° C | 39% | 1001.5 hPa | 0 mm | - | 908 W/m² | - |
| 1777921483 | 26.11° C | 40% | 1001.4 hPa | 0 mm | - | 910 W/m² | - |
| 1777921180 | 26.11° C | 42% | 1001.6 hPa | 0 mm | - | 913 W/m² | - |
* Rain latest hour (hover to see other rain measurements)
** Current wind speed in m/s (hover to see current wind gust speed)